Regional Weather Roundup
Issued by NWS Albany, NY

Current Version | Previous Version | Text Only | Print | Product List | Glossary On
Versions: 1 2 3 4 5 6 7 8 9 10 11 12 13 14 15 16 17 18 19 20 21 22 23 24 25 26 27
000
ASUS41 KALY 200310
RWRALY

NEW YORK STATE HOURLY WEATHER ROUNDUP
NATIONAL WEATHER SERVICE ALBANY NY
1100 PM EDT SAT APR 19 2014

NOTE: "FAIR" INDICATES FEW OR NO CLOUDS BELOW 12,000 FEET WITH NO
SIGNIFICANT WEATHER AND/OR NO OBSTRUCTIONS TO VISIBILITY.

NYZ032-033-038>043-046>054-057>066-NYZ062>081-200400-
EAST


CITY           SKY/WX    TMP DP  RH WIND       PRES   REMARKS
ALBANY         MOCLDY    45  23  42 N7        30.42R
GLENS FALLS    CLEAR     40  26  57 N3        30.44R
POUGHKEEPSIE   CLEAR     48  26  42 NE6       30.37R
NEWBURGH       CLEAR     50  27  40 E10       30.39R
MONTGOMERY     CLEAR     41  31  67 CALM      30.36R
WHITE PLAINS   PTCLDY    51  22  31 N9        30.34R
ISLIP          MOCLDY    54  28  36 N9        30.32R
NEW YORK CITY  MOCLDY    55  23  28 NE13      30.34R
CENTRAL PARK   MOCLDY    56  22  26 N12G18    30.37R
$$

NYZ005>009-017-018-044>046-055-056-200400-
CENTRAL


CITY           SKY/WX    TMP DP  RH WIND       PRES   REMARKS
FULTON         CLEAR     36  28  73 E5        30.42R WCI  32
SYRACUSE       PTCLDY    39  28  64 NE5       30.42S
ROME           CLEAR     38  24  57 E5        30.44R WCI  34
ELMIRA         MOCLDY    36  26  67 CALM      30.41R
BINGHAMTON     MOCLDY    40  26  57 NE3       30.37R
MONTICELLO     PTCLDY    45  27  49 N3        30.38R
$$

NYZ026>034-041>043-200400-
NORTH


CITY           SKY/WX    TMP DP  RH WIND       PRES   REMARKS
WATERTOWN      CLEAR     30  26  85 E5        30.44S WCI  25
FORT DRUM      NOT AVBL
MASSENA        CLEAR     30  25  81 CALM      30.46S
SARANAC LAKE   CLEAR     24  20  84 CALM      30.40R
PLATTSBURGH    CLEAR     36  23  59 W5        30.43R WCI  32
$$

NYZ001>004-010>016-019>021-200400-
WEST


CITY           SKY/WX    TMP DP  RH WIND       PRES   REMARKS
NIAGARA FALLS  PTCLDY    40  25  55 SE5       30.39R
BUFFALO        PTCLDY    43  26  51 E8        30.39S
DUNKIRK        CLEAR     35  28  75 NE3       30.37F
JAMESTOWN      PTCLDY    45  27  49 E8        30.35R
WELLSVILLE     MOCLDY    38  23  55 E6        30.38S WCI  33
ROCHESTER      PTCLDY    42  27  55 CALM      30.41S
PENN YAN       PTCLDY    33  27  78 SE3       30.41S
$$

             KEY
       WCI = WIND CHILL INDEX
       VSB = VISIBILITY
       HX  = HEAT INDEX
$$



USA.gov is the U.S. government's official web portal to all federal, state and local government web resources and services.